[[{"header":{"parameterUnit":"m.s-1","parameterCategory":1,"la1":30.2992,"la2":30.254,"lo1":-89.0895,"lo2":-89.0443,"dy":0.0025,"dx":0.0025,"nx":19,"ny":19,"refTime":"2026-04-19T09:00:00:Z","depth":0,"parameterNumber":2,"parameterNumberName":"U-component_of_WINDS"},"data":[0,0,0,-4.9364,-4.9368,-4.9555,-4.9555,-4.9855,-4.9858,0,0,0,0,0,0,0,0,0,0,0,-4.9345,-4.9349,-4.9363,-4.9369,-4.9555,-4.9555,-4.9854,-4.9858,0,0,0,0,0,0,0,0,0,0,0,-4.9344,-4.9348,-4.9352,-4.937,-4.9555,-4.9555,-4.9854,-4.9691,0,0,0,0,0,0,0,0,0,0,-4.95,-4.952,-4.9347,-4.9352,-4.9371,-4.9554,-4.9555,-4.9683,-4.9702,-4.9797,0,-4.9891,0,-4.988,-4.9882,-4.9884,0,0,0,-4.9342,-4.9504,-4.952,-4.9353,-4.9373,-4.9554,-4.9463,-4.9692,-4.9714,-4.9823,-4.9895,-4.9904,-4.9885,-4.9885,-4.9886,-5.0527,-5.0531,0,0,-4.9331,-4.9399,-4.9506,-4.9536,-4.9511,-4.9457,-4.9469,-4.9705,-4.9788,-4.9896,-4.991,-4.989,-4.9887,-4.989,-5.0523,-5.0528,0,0,0,-4.932,-4.9394,-4.9402,-4.9526,-4.9554,-4.9463,-4.9477,-4.9778,-4.9775,-4.9913,-4.9893,-4.9889,-4.9893,-5.0518,-5.0525,-5.0806,0,0,0,-4.9313,-4.9387,-4.9399,-4.9443,-4.9551,-4.9668,-4.9546,-4.9759,-4.9783,-4.9892,-4.9889,-4.9897,-5.0513,-5.0521,-5.0787,-5.0929,0,0,0,-4.9321,-4.9387,-4.9426,-4.9446,-4.9528,-4.9663,-4.9673,-4.9762,-4.9773,-4.9884,-4.9898,-5.051,-5.052,-5.0771,-5.0903,-5.1122,0,0,0,-4.9349,-4.9673,-4.9432,-4.9785,-4.9528,-4.9833,-4.967,-4.9894,-5.0023,-4.9891,-5.0514,-5.0524,-5.0766,-5.0886,-5.1105,-5.1323,-5.1418,0,0,-4.9796,-4.9729,-4.9931,-4.9721,-5.0087,-4.9799,-5.0206,-5.0259,-5.0207,-5.0423,-5.0438,-5.0793,-5.0901,-5.1118,-5.1917,-5.1994,0,0,0,-5.0095,-5.0243,-5.0324,-5.0449,-5.0496,-5.0549,-5.0532,-5.0551,-5.0731,-5.0332,-5.0925,-5.0987,-5.1112,-5.1214,-5.1279,-5.1384,-5.0572,-5.057,-5.057,-5.083,-5.0744,-5.1074,-5.1011,-5.1134,-5.1112,-5.1204,-5.1226,-5.1104,-5.1246,-5.1313,-5.1808,-5.1929,-5.1977,-5.2088,-5.1414,-5.1415,-5.1416,-5.1417,-5.1481,-5.1679,-5.1505,-5.1764,-5.1671,-5.1887,-5.1877,-5.1783,-5.1972,-5.175,-5.1856,-5.1628,-5.2064,-5.2156,-5.1437,-5.1433,-5.1431,-5.1429,-5.1427,-5.196,-5.2039,-5.2054,-5.2226,-5.2368,-5.2289,-5.248,-5.2386,-5.23,-5.2404,-5.2467,-5.2462,-5.2451,-5.2438,-5.244,-5.2442,-5.2443,-5.2445,-5.2446,-5.2453,-5.246,-5.2632,-5.2707,-5.2775,-5.2852,-5.283,-5.2894,-5.2942,-5.286,-5.286,-5.2728,-5.2119,-5.1972,-5.2472,-5.2468,-5.2464,-5.2462,-5.246,-5.3158,-5.2983,-5.3249,-5.3317,-5.3396,-5.3545,-5.342,-5.3559,-5.3598,-5.3696,-5.3537,-5.31,-5.3026,-5.2974,-5.2853,-5.3551,-5.3551,-5.3551,-5.3551,-5.3568,-5.3518,-5.3769,-5.3884,-5.3985,-5.3899,-5.4204,-5.4188,-5.4145,-5.4165,-5.4047,-5.3875,-5.3826,-5.3782,-5.3712,-5.3598,-5.4469,-5.447,-5.4471,-5.3999,-5.3955,-5.4234,-5.4187,-5.4242,-5.4292,-5.4576,-5.4716,-5.4629,-5.4507,-5.4179,-5.414,-5.3861,-5.3773,-5.3653,-5.3546,-5.3334,0,0]},{"header":{"parameterUnit":"m.s-1","parameterCategory":1,"la1":30.2992,"la2":30.254,"lo1":-89.0895,"lo2":-89.0443,"dy":0.0025,"dx":0.0025,"nx":19,"ny":19,"refTime":"2026-04-19T09:00:00:Z","depth":0,"parameterNumber":3,"parameterNumberName":"V-component_of_WINDS"},"data":[0,0,0,-4.8396,-4.8399,-4.8531,-4.8532,-4.871,-4.8712,0,0,0,0,0,0,0,0,0,0,0,-4.8366,-4.8368,-4.8396,-4.8399,-4.8531,-4.8532,-4.871,-4.8712,0,0,0,0,0,0,0,0,0,0,0,-4.8365,-4.8367,-4.8369,-4.84,-4.8531,-4.8532,-4.8709,-4.8605,0,0,0,0,0,0,0,0,0,0,-4.8475,-4.8458,-4.8367,-4.8369,-4.8401,-4.8531,-4.8532,-4.86,-4.8612,-4.8655,0,-4.8699,0,-4.8709,-4.8724,-4.8725,0,0,0,-4.8391,-4.8448,-4.8476,-4.837,-4.8402,-4.8531,-4.847,-4.8607,-4.862,-4.8671,-4.8702,-4.8708,-4.8712,-4.8726,-4.8727,-4.9009,-4.901,0,0,-4.8384,-4.8394,-4.8467,-4.8485,-4.8469,-4.8465,-4.8474,-4.8614,-4.8648,-4.8702,-4.8712,-4.8715,-4.8727,-4.8728,-4.9007,-4.9009,0,0,0,-4.8369,-4.839,-4.8413,-4.8478,-4.8501,-4.8469,-4.8479,-4.8641,-4.8648,-4.8714,-4.8717,-4.8728,-4.873,-4.9006,-4.9008,-4.9101,0,0,0,-4.8364,-4.838,-4.841,-4.8418,-4.8499,-4.8574,-4.8503,-4.8639,-4.8654,-4.8716,-4.8728,-4.8732,-4.9004,-4.9007,-4.9095,-4.9143,0,0,0,-4.8354,-4.8379,-4.8402,-4.8418,-4.8476,-4.8571,-4.8586,-4.8642,-4.8657,-4.8725,-4.8733,-4.9002,-4.9006,-4.9089,-4.9134,-4.9219,0,0,0,-4.8346,-4.8483,-4.8404,-4.8556,-4.8475,-4.8629,-4.8585,-4.8699,-4.8769,-4.8729,-4.9004,-4.9008,-4.9087,-4.9128,-4.9213,-4.9293,-4.9327,0,0,-4.8524,-4.8505,-4.8594,-4.8527,-4.8698,-4.8608,-4.8792,-4.8846,-4.8841,-4.8952,-4.8959,-4.9097,-4.9133,-4.9218,-4.952,-4.9547,0,0,0,-4.8653,-4.8717,-4.876,-4.8829,-4.8875,-4.8916,-4.8941,-4.896,-4.9054,-4.8902,-4.9151,-4.9172,-4.9222,-4.9259,-4.9283,-4.9323,-4.9026,-4.9026,-4.9025,-4.8919,-4.8907,-4.9053,-4.9057,-4.9124,-4.9147,-4.9198,-4.9228,-4.9196,-4.9255,-4.9288,-4.9473,-4.9517,-4.9534,-4.9577,-4.933,-4.933,-4.9331,-4.9331,-4.9177,-4.9264,-4.9219,-4.9344,-4.933,-4.9433,-4.9459,-4.9433,-4.9525,-4.9448,-4.949,-4.9406,-4.9565,-4.9601,-4.9338,-4.9337,-4.9336,-4.9335,-4.9334,-4.9348,-4.9388,-4.9411,-4.9507,-4.9581,-4.9579,-4.9669,-4.9653,-4.9637,-4.968,-4.9711,-4.9709,-4.9704,-4.9696,-4.9697,-4.9697,-4.9698,-4.9698,-4.9699,-4.9517,-4.9539,-4.9619,-4.9678,-4.9718,-4.9769,-4.9792,-4.983,-4.9867,-4.9847,-4.9848,-4.9808,-4.9584,-4.9527,-4.9709,-4.9707,-4.9706,-4.9705,-4.9704,-4.9781,-4.9718,-4.9842,-4.9882,-4.9947,-5.0021,-4.9999,-5.0077,-5.0106,-5.015,-5.0101,-4.9939,-4.9917,-4.9898,-4.9851,-5.0105,-5.0105,-5.0105,-5.0105,-4.9925,-4.9912,-5.0033,-5.0099,-5.0161,-5.0152,-5.0287,-5.0305,-5.0313,-5.033,-5.029,-5.0226,-5.0208,-5.0197,-5.0171,-5.0127,-5.0446,-5.0446,-5.0446,-5.0085,-5.0077,-5.0198,-5.0207,-5.0256,-5.0298,-5.0424,-5.0497,-5.0493,-5.046,-5.0341,-5.0327,-5.0223,-5.0191,-5.0155,-5.0116,-5.0034,0,0]}]]